CW6697 Weather Reports


time (UTC)temp
C
wind
direction
speed
KPH
gust
KPH
rain 1hr
cm
rain 24hr
cm
rain mn
cm
humidity
%
barometer
mb
20260504160407 20 301 3.2 6.4 0.00 0.00 0.00 36 1011.6
20260504150831 16 32 3.2 6.4 0.00 0.00 0.00 52 1011.8
20260504150327 15 37 0.0 4.8 0.00 0.00 0.00 54 1012.0
20260504141258 10 79 3.2 4.8 0.00 0.00 0.00 74 1012.1
20260504140754 9 101 3.2 3.2 0.00 0.00 0.00 75 1012.0
20260504140250 8 57 3.2 4.8 0.00 0.00 0.00 78 1012.2
20260504130719 7 100 3.2 4.8 0.00 0.00 0.00 74 1011.8
20260504130214 7 107 3.2 4.8 0.00 0.00 0.00 74 1011.8
20260504120138 7 111 1.6 4.8 0.00 0.00 0.00 73 1011.8
20260504110606 8 72 0.0 3.2 0.00 0.00 0.00 72 1011.8
20260504100528 8 84 3.2 4.8 0.00 0.00 0.00 70 1011.7
20260504081921 10 63 0.0 3.2 0.00 0.00 0.00 65 1011.7
20260504081418 10 145 0.0 3.2 0.00 0.00 0.00 63 1011.7
20260504080914 10 147 0.0 3.2 0.00 0.00 0.00 63 1011.7
20260504080411 10 103 0.0 3.2 0.00 0.00 0.00 63 1011.6
20260504070338 11 160 0.0 3.2 0.00 0.00 0.00 59 1011.3
20260504050726 13 166 0.0 1.6 0.00 0.00 0.00 50 1011.2
20260504050223 13 38 0.0 3.2 0.00 0.00 0.00 50 1011.6
20260504045721 14 45 3.2 3.2 0.00 0.00 0.00 49 1011.3
20260504045216 14 240 0.0 3.2 0.00 0.00 0.00 47 1011.3
20260504044714 14 269 0.0 3.2 0.00 0.00 0.00 48 1011.1
20260504044211 14 322 0.0 1.6 0.00 0.00 0.00 48 1010.9
20260504043708 14 293 0.0 3.2 0.00 0.00 0.00 48 1011.0
20260504043204 14 205 0.0 1.6 0.00 0.00 0.00 49 1010.9
20260504042702 14 230 0.0 1.6 0.00 0.00 0.00 50 1011.1
20260504042158 14 66 0.0 0.0 0.00 0.00 0.00 51 1010.9
20260504041654 14 66 0.0 1.6 0.00 0.00 0.00 50 1010.9
20260504041150 15 129 0.0 1.6 0.00 0.00 0.00 52 1010.6
20260504040648 15 89 0.0 3.2 0.00 0.00 0.00 51 1011.1
20260504040145 15 103 1.6 3.2 0.00 0.00 0.00 51 1010.7
20260504035641 15 81 0.0 1.6 0.00 0.00 0.00 50 1010.6
20260504035138 15 130 0.0 1.6 0.00 0.00 0.00 50 1010.6
20260504034636 16 230 0.0 1.6 0.00 0.00 0.00 49 1010.4
20260504034132 16 29 0.0 3.2 0.00 0.00 0.00 48 1010.2
20260504033630 16 8 1.6 3.2 0.00 0.00 0.00 47 1010.5
20260504033127 17 3 3.2 4.8 0.00 0.00 0.00 45 1010.4
20260504032624 17 352 1.6 3.2 0.00 0.00 0.00 44 1010.4
20260504032121 17 0 3.2 3.2 0.00 0.00 0.00 42 1010.1
20260504031618 17 2 3.2 4.8 0.00 0.00 0.00 42 1010.1
20260504031114 18 351 3.2 3.2 0.00 0.00 0.00 42 1010.1
20260504030611 18 345 0.0 3.2 0.00 0.00 0.00 43 1010.0
20260504030108 18 332 3.2 4.8 0.00 0.00 0.00 41 1010.0
20260504025605 18 269 0.0 3.2 0.00 0.00 0.00 41 1009.6
20260504025102 18 269 0.0 4.8 0.00 0.00 0.00 41 1009.6
20260504024559 19 336 1.6 3.2 0.00 0.00 0.00 40 1009.5
20260504024055 19 352 3.2 3.2 0.00 0.00 0.00 39 1009.7
20260504023552 19 277 1.6 6.4 0.00 0.00 0.00 41 1009.4
20260504023048 20 255 3.2 4.8 0.00 0.00 0.00 39 1009.5
20260504022544 20 264 3.2 6.4 0.00 0.00 0.00 36 1009.7
20260504022041 20 256 3.2 3.2 0.00 0.00 0.00 35 1009.5
20260504021538 21 242 3.2 6.4 0.00 0.00 0.00 34 1009.5
20260504021035 21 272 3.2 3.2 0.00 0.00 0.00 33 1009.5
20260504020532 22 274 1.6 4.8 0.00 0.00 0.00 35 1009.5
20260504020028 22 232 3.2 6.4 0.00 0.00 0.00 31 1009.5
20260504015525 22 297 0.0 4.8 0.00 0.00 0.00 31 1009.7
20260504015021 23 254 3.2 6.4 0.00 0.00 0.00 29 1009.7
20260504014517 23 252 3.2 6.4 0.00 0.00 0.00 29 1009.6
20260504014014 25 276 3.2 4.8 0.00 0.00 0.00 31 1009.7
20260504013512 25 234 4.8 8.0 0.00 0.00 0.00 24 1009.5
20260504013009 26 284 3.2 8.0 0.00 0.00 0.00 21 1009.5
20260504012506 25 320 4.8 8.0 0.00 0.00 0.00 24 1009.9
20260504012004 26 241 4.8 14.5 0.00 0.00 0.00 23 1009.7
20260504011500 26 285 3.2 8.0 0.00 0.00 0.00 22 1010.0
20260504010956 26 239 1.6 6.4 0.00 0.00 0.00 22 1009.9
20260504010452 26 244 3.2 6.4 0.00 0.00 0.00 23 1009.6
20260504005948 26 291 1.6 8.0 0.00 0.00 0.00 21 1009.9
20260504005445 27 140 3.2 9.7 0.00 0.00 0.00 24 1010.1
20260504004943 27 176 0.0 8.0 0.00 0.00 0.00 21 1009.9
20260504004440 28 357 0.0 8.0 0.00 0.00 0.00 22 1009.9
20260504003937 28 348 3.2 9.7 0.00 0.00 0.00 21 1010.1
20260504003433 28 234 3.2 4.8 0.00 0.00 0.00 20 1010.2
20260504002930 28 179 4.8 6.4 0.00 0.00 0.00 19 1010.2
20260504002427 29 220 6.4 9.7 0.00 0.00 0.00 19 1010.4
20260504001925 29 351 3.2 8.0 0.00 0.00 0.00 20 1010.3
20260504001422 29 239 1.6 9.7 0.00 0.00 0.00 22 1010.1
20260504000918 30 28 3.2 8.0 0.00 0.00 0.00 21 1010.3
20260504000416 30 269 0.0 4.8 0.00 0.00 0.00 18 1010.4
20260503235913 29 319 1.6 11.3 0.00 0.00 0.00 18 1010.3
20260503235411 30 106 4.8 6.4 0.00 0.00 0.00 18 1010.4
20260503234908 30 192 3.2 6.4 0.00 0.00 0.00 19 1010.2
20260503234405 30 240 6.4 8.0 0.00 0.00 0.00 18 1010.2
20260503233903 30 51 3.2 6.4 0.00 0.00 0.00 19 1010.4
20260503233359 30 329 3.2 6.4 0.00 0.00 0.00 20 1010.3
20260503232856 30 305 0.0 4.8 0.00 0.00 0.00 20 1010.6
20260503232353 30 232 4.8 8.0 0.00 0.00 0.00 19 1010.5
20260503231851 29 66 1.6 4.8 0.00 0.00 0.00 20 1010.7
20260503231347 30 155 4.8 6.4 0.00 0.00 0.00 18 1010.8
20260503230844 30 212 1.6 8.0 0.00 0.00 0.00 21 1010.7
20260503230340 30 43 3.2 8.0 0.00 0.00 0.00 21 1011.2
20260503225839 29 265 3.2 9.7 0.00 0.00 0.00 18 1010.9
20260503225334 30 253 6.4 6.4 0.00 0.00 0.00 18 1011.0
20260503224831 30 253 4.8 11.3 0.00 0.00 0.00 19 1010.9
20260503224328 30 325 1.6 3.2 0.00 0.00 0.00 17 1011.1
20260503223826 30 337 4.8 4.8 0.00 0.00 0.00 17 1011.3
20260503223323 30 36 3.2 8.0 0.00 0.00 0.00 21 1011.2
20260503222819 30 54 1.6 9.7 0.00 0.00 0.00 19 1011.3
20260503222317 29 116 0.0 11.3 0.00 0.00 0.00 17 1011.4
20260503221815 30 291 3.2 12.9 0.00 0.00 0.00 19 1011.7
20260503221314 30 330 3.2 4.8 0.00 0.00 0.00 17 1011.7
20260503220809 30 224 4.8 9.7 0.00 0.00 0.00 19 1011.8
20260503220306 30 227 6.4 9.7 0.00 0.00 0.00 19 1011.6
20260503215803 30 347 3.2 9.7 0.00 0.00 0.00 19 1011.9
20260503215300 30 297 4.8 6.4 0.00 0.00 0.00 19 1011.7
20260503214758 30 199 4.8 8.0 0.00 0.00 0.00 17 1011.9
20260503214255 29 114 1.6 8.0 0.00 0.00 0.00 16 1012.0
20260503213752 30 314 4.8 6.4 0.00 0.00 0.00 16 1012.0
20260503213250 28 235 3.2 6.4 0.00 0.00 0.00 16 1012.1
20260503212746 29 277 4.8 14.5 0.00 0.00 0.00 17 1012.3
20260503212244 29 358 4.8 8.0 0.00 0.00 0.00 17 1012.2
20260503211741 28 10 4.8 9.7 0.00 0.00 0.00 19 1012.2
20260503211238 28 321 3.2 14.5 0.00 0.00 0.00 17 1011.9
20260503210733 29 292 3.2 6.4 0.00 0.00 0.00 18 1012.2
20260503210231 28 342 3.2 6.4 0.00 0.00 0.00 18 1012.4
20260503205726 28 195 1.6 8.0 0.00 0.00 0.00 16 1012.5
20260503205222 28 67 3.2 9.7 0.00 0.00 0.00 18 1012.6
20260503204719 28 254 14.5 14.5 0.00 0.00 0.00 18 1012.6
20260503204217 28 331 1.6 4.8 0.00 0.00 0.00 18 1012.7
20260503203714 28 285 3.2 9.7 0.00 0.00 0.00 18 1012.6
20260503203211 28 25 0.0 4.8 0.00 0.00 0.00 18 1012.6
20260503202708 28 222 4.8 6.4 0.00 0.00 0.00 18 1012.7
20260503202206 28 176 3.2 8.0 0.00 0.00 0.00 18 1012.9
20260503201704 28 336 3.2 6.4 0.00 0.00 0.00 17 1013.0
20260503201201 27 229 6.4 9.7 0.00 0.00 0.00 18 1012.8
20260503200657 28 98 3.2 8.0 0.00 0.00 0.00 17 1013.3
20260503200153 28 285 3.2 6.4 0.00 0.00 0.00 19 1013.4
20260503195645 27 197 6.4 9.7 0.00 0.00 0.00 19 1013.5
20260503195142 27 158 3.2 8.0 0.00 0.00 0.00 19 1013.5
20260503194639 27 231 3.2 9.7 0.00 0.00 0.00 19 1013.5
20260503194134 28 334 4.8 8.0 0.00 0.00 0.00 19 1013.6
20260503193631 28 23 1.6 9.7 0.00 0.00 0.00 17 1013.8
20260503193126 28 166 3.2 6.4 0.00 0.00 0.00 20 1013.8
20260503192622 27 280 3.2 12.9 0.00 0.00 0.00 18 1013.8
20260503192118 28 15 6.4 8.0 0.00 0.00 0.00 19 1013.8
20260503191615 27 324 3.2 11.3 0.00 0.00 0.00 19 1013.7
20260503191112 27 279 3.2 11.3 0.00 0.00 0.00 19 1013.9
20260503190609 27 322 1.6 8.0 0.00 0.00 0.00 19 1013.7
20260503190106 27 248 0.0 9.7 0.00 0.00 0.00 20 1013.9
20260503185603 27 162 3.2 8.0 0.00 0.00 0.00 19 1014.0
20260503185103 27 54 4.8 9.7 0.00 0.00 0.00 21 1014.1
20260503184558 26 216 3.2 8.0 0.00 0.00 0.00 22 1014.3
20260503184055 26 138 3.2 6.4 0.00 0.00 0.00 22 1014.3
20260503183552 25 141 4.8 9.7 0.00 0.00 0.00 24 1014.3
20260503183049 25 135 4.8 11.3 0.00 0.00 0.00 27 1014.4
20260503182547 25 116 0.0 8.0 0.00 0.00 0.00 31 1014.7
20260503182045 25 162 6.4 8.0 0.00 0.00 0.00 33 1014.5
20260503181542 25 85 3.2 8.0 0.00 0.00 0.00 30 1014.7
20260503181038 25 158 3.2 9.7 0.00 0.00 0.00 30 1014.9
20260503180535 24 220 3.2 6.4 0.00 0.00 0.00 31 1015.0
20260503180032 23 157 3.2 8.0 0.00 0.00 0.00 31 1015.1
20260503175524 23 81 0.0 8.0 0.00 0.00 0.00 33 1015.0
20260503175021 23 210 0.0 8.0 0.00 0.00 0.00 33 1015.1
20260503174519 23 191 1.6 8.0 0.00 0.00 0.00 35 1015.2
20260503174014 22 148 3.2 6.4 0.00 0.00 0.00 35 1015.4
20260503173504 22 180 4.8 8.0 0.00 0.00 0.00 35 1015.3
20260503173000 22 127 1.6 6.4 0.00 0.00 0.00 37 1015.7
20260503172458 22 151 4.8 8.0 0.00 0.00 0.00 35 1015.7
20260503171954 22 173 3.2 6.4 0.00 0.00 0.00 37 1015.7
20260503171445 21 162 3.2 6.4 0.00 0.00 0.00 38 1015.7
20260503170943 21 154 0.0 6.4 0.00 0.00 0.00 38 1015.8
20260503170439 20 145 4.8 6.4 0.00 0.00 0.00 37 1015.7